Regional Weather Roundup
Issued by NWS

Home | Current Version | Previous Version | Graphics & Text | Print | Product List | Glossary On
Versions: 1 2 3 4 5 6 7 8 9 10 11 12 13 14 15 16 17 18 19 20 21 22 23 24 25 26 27 28 29 30 31 32 33 34 35 36 37 38 39 40 41 42 43 44 45 46 47 48 49 50
000
ASUS43 KLMK 222002
RWRKY
KENTUCKY REGIONAL WEATHER ROUNDUP
NATIONAL WEATHER SERVICE LOUISVILLE KY
400 PM EDT FRI SEP 22 2017

NOTE "FAIR" INDICATES FEW OR NO CLOUDS BELOW 12,000 FEET
WITH NO SIGNIFICANT WEATHER AND/OR OBSTRUCTIONS TO VISIBILITY.

KYZ001>023-026-027-061>063-070>075-222100-
WESTERN AND SOUTH CENTRAL KENTUCKY

CITY           SKY/WX    TMP DP  RH WIND       PRES   REMARKS
PADUCAH        SUNNY     91  64  40 VRB3      30.01F HX  92
HENDERSON      SUNNY     90  67  46 SE8       30.02F HX  93
OWENSBORO      SUNNY     91  68  46 NE9       30.03F HX  95
HOPKINSVILLE   NOT AVBL
BOWLING GREEN  MOSUNNY   89  67  47 E8        30.03F HX  92
GLASGOW        NOT AVBL
$$

KYZ024-025-028>034-038-045-046-053-222100-
NORTH CENTRAL KENTUCKY

CITY           SKY/WX    TMP DP  RH WIND       PRES   REMARKS
LOUISVILLE/SDF MOSUNNY   90  66  45 SE12      30.03F HX  92
LOUISVILLE/LOU MOSUNNY   87  67  51 E3        30.05F HX  90
FORT KNOX      MOSUNNY   86  67  52 VRB7      30.04F
$$

KYZ035>037-039>044-047>052-055>060-089>105-222100-
NORTHEAST KENTUCKY

CITY           SKY/WX    TMP DP  RH WIND       PRES   REMARKS
LEXINGTON      SUNNY     87  64  46 NE6       30.08F
COVINGTON      PTSUNNY   88  67  49 CALM      30.06F HX  91
FRANKFORT      SUNNY     89  63  41 E6        30.06F HX  90
$$

KYZ054-064>069-076>088-106>120-222100-
SOUTHEAST KENTUCKY

CITY           SKY/WX    TMP DP  RH WIND       PRES   REMARKS
JACKSON        MOSUNNY   82  65  56 CALM      30.10F
LONDON         MOSUNNY   86  64  47 NE8       30.07F
SOMERSET       NOT AVBL
MIDDLESBORO    PTSUNNY   86  64  47 NW3       30.06F
MONTICELLO     PTCLDY    84  66  54 W7        30.08S
$$





USA.gov is the U.S. government's official web portal to all federal, state and local government web resources and services.